Tracking 19562 objects as of 23-Mar-2019
HD Live streaming from Space Station
objects crossing your sky now

COSMOS 590

Track COSMOS 590 now!
10-day predictions
COSMOS 590 is classified as:


NORAD ID: 6847
Int'l Code: 1973-069C
Perigee: 1,440.3 km
Apogee: 1,494.0 km
Inclination: 74.0 °
Period: 115.1 minutes
Semi major axis: 7838 km
RCS: 0.7061 m2 (medium)
Launch date: October 2, 1973
Source: Commonwealth of Independent States (former USSR) (CIS)
Launch site: PLESETSK MISSILE AND SPACE COMPLEX (PKMTR)
aabbcc
Your satellite tracking list
Your tracking list is empty




NASA's NSSDC Master Catalog

Two Line Element Set (TLE):
1  6847U 73069C   19080.70820068 +.00000004 +00000-0 +13209-3 0  9991
2  6847 074.0013 160.9057 0034241 010.7103 102.8243 12.51066242076334
Source of the keplerian elements: AFSPC